RYR91YE EGCC-EDFH

Flight info

Callsign RYR91YE
Flight time 1h 14m
Altitude 37000
Route SANBA N859 HON L15 BIG UL9 KONAN UL607 SPI Q50 ARCKY L607 ROPUV ROPUV4A
Aircraft B38M/M-SDE1FGHILORVWXY/HB1

Departure

Time 2026-05-04 14:48
Airport Manchester Airport (EGCC)

Arrival

Time 2026-05-04 16:03
Airport Frankfurt-Hahn Airport (EDFH)
Time Latitude Longitude Altitude Speed Heading
2026-05-04 14:15 53.36036 -2.26883 258 ft 0 kts 313°
2026-05-04 14:35 53.36030 -2.26872 258 ft 4 kts 313°
2026-05-04 14:36 53.36013 -2.26844 258 ft 2 kts 316°
2026-05-04 14:36 53.36002 -2.26814 258 ft 4 kts 262°
2026-05-04 14:36 53.36012 -2.26777 258 ft 4 kts 231°
2026-05-04 14:36 53.36028 -2.26745 258 ft 4 kts 231°
2026-05-04 14:37 53.36045 -2.26710 258 ft 4 kts 231°
2026-05-04 14:37 53.36058 -2.26683 258 ft 4 kts 233°
2026-05-04 14:37 53.36073 -2.26646 258 ft 4 kts 241°
2026-05-04 14:37 53.36075 -2.26639 258 ft 0 kts 242°
2026-05-04 14:41 53.36071 -2.26652 258 ft 3 kts 240°
2026-05-04 14:41 53.36024 -2.26743 258 ft 8 kts 210°
2026-05-04 14:42 53.35936 -2.26711 258 ft 4 kts 169°
2026-05-04 14:42 53.35916 -2.26710 260 ft 1 kts 176°
2026-05-04 14:42 53.35918 -2.26710 259 ft 0 kts 172°
2026-05-04 14:43 53.35917 -2.26710 260 ft 1 kts 172°
2026-05-04 14:44 53.35883 -2.26700 264 ft 10 kts 170°
2026-05-04 14:44 53.35785 -2.26670 272 ft 19 kts 170°
2026-05-04 14:44 53.35639 -2.26627 270 ft 23 kts 170°
2026-05-04 14:44 53.35535 -2.26699 262 ft 18 kts 231°
2026-05-04 14:45 53.35443 -2.26889 255 ft 24 kts 231°
2026-05-04 14:45 53.35361 -2.27059 248 ft 9 kts 231°
2026-05-04 14:45 53.35356 -2.27068 248 ft 0 kts 231°
2026-05-04 14:45 53.35352 -2.27078 248 ft 5 kts 231°
2026-05-04 14:46 53.35306 -2.27174 245 ft 15 kts 231°
2026-05-04 14:46 53.35235 -2.27222 238 ft 14 kts 192°
2026-05-04 14:46 53.35158 -2.27248 235 ft 5 kts 192°
2026-05-04 14:46 53.35155 -2.27249 235 ft 0 kts 192°
2026-05-04 14:47 53.35128 -2.27259 232 ft 9 kts 192°
2026-05-04 14:47 53.35042 -2.27282 228 ft 14 kts 197°
2026-05-04 14:47 53.34970 -2.27402 228 ft 18 kts 231°
2026-05-04 14:47 53.34845 -2.27662 225 ft 38 kts 231°
2026-05-04 14:48 53.34552 -2.28266 231 ft 101 kts 231°
2026-05-04 14:48 53.33981 -2.29443 239 ft 156 kts 230°
2026-05-04 14:48 53.33262 -2.30907 720 ft 170 kts 230°
2026-05-04 14:48 53.32493 -2.32473 1436 ft 178 kts 230°
2026-05-04 14:49 53.31691 -2.34161 1955 ft 200 kts 239°
2026-05-04 14:49 53.31239 -2.36481 2429 ft 222 kts 264°
2026-05-04 14:49 53.31366 -2.39199 2841 ft 248 kts 284°
2026-05-04 14:49 53.31756 -2.41995 3813 ft 245 kts 278°
2026-05-04 14:50 53.31654 -2.44896 3960 ft 257 kts 249°
2026-05-04 14:50 53.30561 -2.47180 3913 ft 258 kts 211°
2026-05-04 14:50 53.28829 -2.47815 3941 ft 258 kts 169°
2026-05-04 14:50 53.27200 -2.46677 4915 ft 255 kts 150°
2026-05-04 14:51 53.25747 -2.45022 5755 ft 261 kts 142°
2026-05-04 14:51 53.24328 -2.43040 6393 ft 271 kts 139°
2026-05-04 14:51 53.22823 -2.41109 6907 ft 275 kts 149°
2026-05-04 14:51 53.21145 -2.39527 7389 ft 279 kts 152°
2026-05-04 14:52 53.19412 -2.38063 7720 ft 281 kts 154°
2026-05-04 14:52 53.17659 -2.36589 7814 ft 282 kts 153°
2026-05-04 14:52 53.15890 -2.35096 7724 ft 288 kts 153°
2026-05-04 14:52 53.14126 -2.33586 7516 ft 283 kts 153°
2026-05-04 14:53 53.12386 -2.32066 7419 ft 283 kts 153°
2026-05-04 14:53 53.10671 -2.30568 8202 ft 282 kts 153°
2026-05-04 14:53 53.08923 -2.29043 9103 ft 286 kts 153°
2026-05-04 14:53 53.07141 -2.27490 9923 ft 291 kts 153°
2026-05-04 14:54 53.05324 -2.25908 10560 ft 303 kts 153°
2026-05-04 14:54 53.03409 -2.24242 10922 ft 323 kts 153°
2026-05-04 14:54 53.01369 -2.22468 11379 ft 338 kts 153°
2026-05-04 14:54 52.99247 -2.20627 12042 ft 345 kts 153°
2026-05-04 14:55 52.97115 -2.18779 12926 ft 347 kts 153°
2026-05-04 14:55 52.94990 -2.16938 13747 ft 351 kts 153°
2026-05-04 14:55 52.92812 -2.15053 14520 ft 355 kts 153°
2026-05-04 14:55 52.90613 -2.13153 15308 ft 358 kts 153°
2026-05-04 14:56 52.88386 -2.11231 16112 ft 362 kts 153°
2026-05-04 14:56 52.86147 -2.09301 16878 ft 366 kts 153°
2026-05-04 14:56 52.83876 -2.07346 17644 ft 369 kts 153°
2026-05-04 14:56 52.81599 -2.05387 18378 ft 373 kts 153°
2026-05-04 14:57 52.79291 -2.03403 19018 ft 376 kts 153°
2026-05-04 14:57 52.76954 -2.01397 19655 ft 379 kts 153°
2026-05-04 14:57 52.74636 -1.99411 20277 ft 383 kts 153°
2026-05-04 14:57 52.72273 -1.97389 20966 ft 384 kts 153°
2026-05-04 14:58 52.69889 -1.95352 21596 ft 387 kts 153°
2026-05-04 14:58 52.67491 -1.93304 22211 ft 390 kts 153°
2026-05-04 14:58 52.65072 -1.91242 22817 ft 393 kts 153°
2026-05-04 14:58 52.63455 -1.89864 23215 ft 395 kts 153°
2026-05-04 14:59 52.60188 -1.87084 23926 ft 399 kts 153°
2026-05-04 14:59 52.57712 -1.84981 24411 ft 402 kts 153°
2026-05-04 14:59 52.52734 -1.80760 25344 ft 408 kts 153°
2026-05-04 15:00 52.50201 -1.78617 25794 ft 411 kts 153°
2026-05-04 15:00 52.47645 -1.76457 26016 ft 415 kts 153°
2026-05-04 15:00 52.45087 -1.74298 26044 ft 413 kts 153°
2026-05-04 15:01 52.39988 -1.70001 26044 ft 412 kts 153°
2026-05-04 15:01 52.37445 -1.67861 26046 ft 412 kts 153°
2026-05-04 15:01 52.35099 -1.65191 26033 ft 412 kts 137°
2026-05-04 15:01 52.33104 -1.61826 26044 ft 414 kts 135°
2026-05-04 15:02 52.31116 -1.58508 26041 ft 414 kts 135°
2026-05-04 15:02 52.29115 -1.55132 26046 ft 414 kts 135°
2026-05-04 15:02 52.27121 -1.51747 26045 ft 414 kts 135°
2026-05-04 15:02 52.25124 -1.48351 26055 ft 414 kts 135°
2026-05-04 15:03 52.23131 -1.44962 26036 ft 415 kts 135°
2026-05-04 15:03 52.21129 -1.41562 26046 ft 416 kts 135°
2026-05-04 15:03 52.19810 -1.39322 26052 ft 416 kts 135°
2026-05-04 15:03 52.17125 -1.34771 26052 ft 416 kts 136°
2026-05-04 15:04 52.15140 -1.31412 26050 ft 416 kts 136°
2026-05-04 15:04 52.13783 -1.29119 26048 ft 416 kts 136°
2026-05-04 15:04 52.11122 -1.24628 26044 ft 416 kts 136°
2026-05-04 15:04 52.09111 -1.21240 26041 ft 416 kts 136°
2026-05-04 15:05 52.07100 -1.17856 26049 ft 416 kts 136°
2026-05-04 15:05 52.05769 -1.15618 26047 ft 416 kts 136°
2026-05-04 15:05 52.03754 -1.12234 26045 ft 416 kts 136°
2026-05-04 15:05 52.01749 -1.08883 26038 ft 416 kts 136°
2026-05-04 15:06 51.99737 -1.05520 26044 ft 416 kts 136°
2026-05-04 15:06 51.97725 -1.02155 26039 ft 415 kts 136°
2026-05-04 15:06 51.95047 -0.97686 26477 ft 417 kts 136°
2026-05-04 15:07 51.91660 -0.92045 27163 ft 423 kts 137°
2026-05-04 15:07 51.89601 -0.88620 27632 ft 425 kts 137°
2026-05-04 15:07 51.87534 -0.85189 28073 ft 427 kts 137°
2026-05-04 15:07 51.85468 -0.81763 28505 ft 430 kts 137°
2026-05-04 15:08 51.83375 -0.78298 28935 ft 432 kts 137°
2026-05-04 15:08 51.81265 -0.74809 29351 ft 434 kts 137°
2026-05-04 15:08 51.79151 -0.71321 29802 ft 435 kts 137°
2026-05-04 15:08 51.77031 -0.67827 30233 ft 437 kts 137°
2026-05-04 15:09 51.74897 -0.64316 30535 ft 439 kts 137°
2026-05-04 15:09 51.72751 -0.60789 30874 ft 442 kts 137°
2026-05-04 15:09 51.70588 -0.57240 31160 ft 444 kts 137°
2026-05-04 15:10 51.66279 -0.50186 31799 ft 449 kts 137°
2026-05-04 15:10 51.64080 -0.46592 32161 ft 450 kts 137°
2026-05-04 15:10 51.59708 -0.39467 33016 ft 448 kts 137°
2026-05-04 15:11 51.57522 -0.35912 33437 ft 448 kts 137°
2026-05-04 15:11 51.55332 -0.32354 33920 ft 446 kts 137°
2026-05-04 15:11 51.53157 -0.28826 34354 ft 444 kts 137°
2026-05-04 15:11 51.50978 -0.25297 34660 ft 444 kts 137°
2026-05-04 15:12 51.48814 -0.21799 34965 ft 445 kts 137°
2026-05-04 15:12 51.46636 -0.18282 35253 ft 445 kts 137°
2026-05-04 15:12 51.44476 -0.14800 35553 ft 446 kts 137°
2026-05-04 15:12 51.42293 -0.11285 35845 ft 446 kts 137°
2026-05-04 15:13 51.40101 -0.07760 36137 ft 447 kts 137°
2026-05-04 15:13 51.37904 -0.04232 36411 ft 447 kts 137°
2026-05-04 15:13 51.35711 -0.00700 36697 ft 448 kts 135°
2026-05-04 15:13 51.33838 0.03292 37009 ft 451 kts 120°
2026-05-04 15:14 51.32712 0.07938 37304 ft 454 kts 105°
2026-05-04 15:14 51.32036 0.12876 37531 ft 456 kts 104°
2026-05-04 15:14 51.31383 0.17829 37741 ft 457 kts 103°
2026-05-04 15:14 51.30747 0.22811 38003 ft 457 kts 103°
2026-05-04 15:15 51.30124 0.27799 38295 ft 458 kts 103°
2026-05-04 15:15 51.29513 0.32729 38533 ft 458 kts 103°
2026-05-04 15:15 51.28896 0.37717 38747 ft 458 kts 103°
2026-05-04 15:16 51.27657 0.47683 38985 ft 460 kts 103°
2026-05-04 15:16 51.27031 0.52686 38993 ft 459 kts 103°
2026-05-04 15:17 51.25141 0.67639 38990 ft 458 kts 103°
2026-05-04 15:17 51.23234 0.82577 38988 ft 458 kts 103°
2026-05-04 15:18 51.21956 0.92507 38993 ft 458 kts 103°
2026-05-04 15:19 51.20027 1.07358 39001 ft 458 kts 103°
2026-05-04 15:19 51.18074 1.22243 38996 ft 458 kts 104°
2026-05-04 15:20 51.16757 1.32187 38994 ft 458 kts 104°
2026-05-04 15:20 51.15979 1.42182 39005 ft 460 kts 96°
2026-05-04 15:21 51.15479 1.52366 38990 ft 461 kts 96°
2026-05-04 15:22 51.14731 1.67617 38988 ft 461 kts 96°
2026-05-04 15:22 51.13962 1.82877 38988 ft 461 kts 97°
2026-05-04 15:23 51.13442 1.92994 38978 ft 462 kts 97°
2026-05-04 15:23 51.12910 2.03180 38992 ft 463 kts 97°
2026-05-04 15:24 51.11818 2.23531 38990 ft 463 kts 97°
2026-05-04 15:25 51.11257 2.33722 38987 ft 463 kts 97°
2026-05-04 15:26 51.10400 2.49016 38981 ft 463 kts 97°
2026-05-04 15:26 51.09503 2.64302 38975 ft 462 kts 101°
2026-05-04 15:27 51.06983 2.78933 38972 ft 459 kts 108°
2026-05-04 15:28 51.04331 2.93528 38988 ft 460 kts 108°
2026-05-04 15:29 51.01647 3.08157 38981 ft 460 kts 108°
2026-05-04 15:30 50.95334 3.42132 38959 ft 460 kts 109°
2026-05-04 15:31 50.92594 3.56681 38964 ft 460 kts 109°
2026-05-04 15:32 50.87953 3.80864 38960 ft 460 kts 109°
2026-05-04 15:34 50.83259 4.04983 38966 ft 460 kts 110°
2026-05-04 15:34 50.80411 4.19469 38967 ft 460 kts 110°
2026-05-04 15:35 50.77541 4.33957 38967 ft 462 kts 110°
2026-05-04 15:36 50.74641 4.48490 38967 ft 462 kts 110°
2026-05-04 15:36 50.72714 4.58099 38964 ft 462 kts 110°
2026-05-04 15:37 50.70835 4.67799 38963 ft 462 kts 110°
2026-05-04 15:37 50.68949 4.77482 38971 ft 463 kts 110°
2026-05-04 15:38 50.67049 4.87185 38970 ft 463 kts 110°
2026-05-04 15:38 50.65089 4.96862 38973 ft 463 kts 110°
2026-05-04 15:39 50.63124 5.06440 38976 ft 463 kts 110°
2026-05-04 15:40 50.60147 5.20879 38982 ft 464 kts 111°
2026-05-04 15:40 50.59150 5.25693 38538 ft 462 kts 111°
2026-05-04 15:40 50.58143 5.30531 37493 ft 468 kts 111°
2026-05-04 15:40 50.57131 5.35395 36855 ft 465 kts 112°
2026-05-04 15:41 50.56142 5.40132 36232 ft 462 kts 112°
2026-05-04 15:41 50.55143 5.44908 35356 ft 462 kts 112°
2026-05-04 15:41 50.54144 5.49674 34497 ft 456 kts 113°
2026-05-04 15:41 50.53159 5.54369 33757 ft 447 kts 113°
2026-05-04 15:42 50.52193 5.58964 32974 ft 439 kts 114°
2026-05-04 15:42 50.51000 5.63305 32101 ft 429 kts 127°
2026-05-04 15:42 50.49338 5.67239 31326 ft 440 kts 127°
2026-05-04 15:42 50.47665 5.71316 30722 ft 445 kts 128°
2026-05-04 15:43 50.45969 5.75390 30219 ft 447 kts 128°
2026-05-04 15:43 50.44282 5.79405 29558 ft 445 kts 128°
2026-05-04 15:43 50.42589 5.83419 28825 ft 442 kts 128°
2026-05-04 15:43 50.40905 5.87401 28315 ft 435 kts 128°
2026-05-04 15:44 50.39240 5.91330 27746 ft 430 kts 128°
2026-05-04 15:44 50.37593 5.95211 27171 ft 427 kts 128°
2026-05-04 15:44 50.35955 5.99065 26593 ft 423 kts 128°
2026-05-04 15:44 50.34324 6.02896 26020 ft 421 kts 128°
2026-05-04 15:45 50.32709 6.06686 25448 ft 418 kts 127°
2026-05-04 15:45 50.31108 6.10465 24899 ft 417 kts 125°
2026-05-04 15:45 50.29937 6.14616 24253 ft 425 kts 108°
2026-05-04 15:45 50.29377 6.19106 23712 ft 425 kts 103°
2026-05-04 15:46 50.28861 6.23637 23097 ft 423 kts 103°
2026-05-04 15:46 50.28365 6.28149 22485 ft 421 kts 103°
2026-05-04 15:46 50.27876 6.32668 21851 ft 419 kts 102°
2026-05-04 15:46 50.27398 6.37125 21365 ft 414 kts 102°
2026-05-04 15:47 50.26924 6.41546 20859 ft 410 kts 102°
2026-05-04 15:47 50.26454 6.45914 20321 ft 407 kts 103°
2026-05-04 15:47 50.25984 6.50273 19814 ft 404 kts 103°
2026-05-04 15:47 50.25518 6.54572 19318 ft 402 kts 102°
2026-05-04 15:48 50.25053 6.58858 18831 ft 399 kts 102°
2026-05-04 15:48 50.24594 6.63063 18351 ft 396 kts 103°
2026-05-04 15:48 50.23671 6.71483 17317 ft 390 kts 102°
2026-05-04 15:49 50.23214 6.75633 16842 ft 386 kts 102°
2026-05-04 15:49 50.22760 6.79746 16387 ft 382 kts 102°
2026-05-04 15:49 50.22252 6.83789 15891 ft 377 kts 110°
2026-05-04 15:49 50.21137 6.87433 15472 ft 369 kts 123°
2026-05-04 15:50 50.19900 6.90821 15314 ft 357 kts 123°
2026-05-04 15:50 50.18690 6.94090 15131 ft 343 kts 123°
2026-05-04 15:50 50.17512 6.97239 14962 ft 331 kts 124°
2026-05-04 15:50 50.16362 7.00292 14802 ft 322 kts 124°
2026-05-04 15:51 50.15236 7.03271 14633 ft 314 kts 124°
2026-05-04 15:51 50.14142 7.06158 14494 ft 305 kts 124°
2026-05-04 15:51 50.13079 7.08962 14354 ft 296 kts 124°
2026-05-04 15:51 50.12046 7.11683 14223 ft 289 kts 124°
2026-05-04 15:52 50.11032 7.14351 14073 ft 282 kts 124°
2026-05-04 15:52 50.10058 7.16908 13934 ft 274 kts 124°
2026-05-04 15:52 50.09197 7.19566 13720 ft 273 kts 109°
2026-05-04 15:52 50.09087 7.22485 13412 ft 280 kts 82°
2026-05-04 15:53 50.09844 7.25251 13106 ft 284 kts 54°
2026-05-04 15:53 50.11307 7.27306 12807 ft 284 kts 32°
2026-05-04 15:53 50.12969 7.28934 12539 ft 283 kts 33°
2026-05-04 15:53 50.14627 7.30590 12232 ft 282 kts 33°
2026-05-04 15:54 50.16267 7.32222 12078 ft 275 kts 33°
2026-05-04 15:54 50.17851 7.33799 11794 ft 268 kts 33°
2026-05-04 15:54 50.19416 7.35356 11379 ft 266 kts 33°
2026-05-04 15:54 50.20955 7.36885 10928 ft 265 kts 33°
2026-05-04 15:55 50.22508 7.38431 10510 ft 264 kts 33°
2026-05-04 15:55 50.23886 7.40272 10034 ft 260 kts 59°
2026-05-04 15:55 50.24524 7.42825 9584 ft 251 kts 86°
2026-05-04 15:55 50.24407 7.45467 9073 ft 239 kts 116°
2026-05-04 15:56 50.23536 7.47544 8563 ft 225 kts 144°
2026-05-04 15:56 50.22225 7.48715 8135 ft 215 kts 166°
2026-05-04 15:56 50.20797 7.49360 7712 ft 213 kts 168°
2026-05-04 15:56 50.19354 7.49620 7301 ft 206 kts 192°
2026-05-04 15:57 50.18054 7.48858 6891 ft 204 kts 208°
2026-05-04 15:57 50.16821 7.47809 6504 ft 201 kts 208°
2026-05-04 15:57 50.15599 7.46787 6209 ft 199 kts 207°
2026-05-04 15:57 50.14387 7.45705 5951 ft 202 kts 210°
2026-05-04 15:58 50.13190 7.44551 5670 ft 203 kts 211°
2026-05-04 15:58 50.12003 7.43373 5372 ft 201 kts 212°
2026-05-04 15:58 50.10831 7.42208 5126 ft 199 kts 212°
2026-05-04 15:58 50.09668 7.41052 4843 ft 196 kts 213°
2026-05-04 15:59 50.08552 7.39944 4639 ft 183 kts 213°
2026-05-04 15:59 50.07517 7.38916 4370 ft 170 kts 213°
2026-05-04 15:59 50.06575 7.37981 4185 ft 158 kts 213°
2026-05-04 15:59 50.05668 7.37080 3961 ft 150 kts 213°
2026-05-04 16:00 50.04808 7.36227 3745 ft 144 kts 212°
2026-05-04 16:00 50.03967 7.35391 3553 ft 145 kts 213°
2026-05-04 16:00 50.03117 7.34564 3391 ft 144 kts 210°
2026-05-04 16:00 50.02268 7.33734 3162 ft 144 kts 212°
2026-05-04 16:01 50.01432 7.32902 2938 ft 143 kts 210°
2026-05-04 16:01 50.00594 7.32056 2723 ft 144 kts 211°
2026-05-04 16:01 49.99748 7.31218 2542 ft 144 kts 213°
2026-05-04 16:01 49.98920 7.30404 2352 ft 143 kts 214°
2026-05-04 16:02 49.98078 7.29558 2203 ft 145 kts 213°
2026-05-04 16:02 49.97228 7.28704 1976 ft 146 kts 213°
2026-05-04 16:02 49.95488 7.26996 1612 ft 145 kts 216°
2026-05-04 16:03 49.94737 7.26248 1619 ft 100 kts 211°
2026-05-04 16:03 49.94282 7.25805 1633 ft 70 kts 212°
2026-05-04 16:03 49.93983 7.25528 1633 ft 13 kts 188°
2026-05-04 16:03 49.93911 7.25607 1634 ft 14 kts 129°
2026-05-04 16:04 49.93867 7.25708 1636 ft 0 kts 123°
2026-05-04 16:06 49.93867 7.25709 1636 ft 0 kts 123°
2026-05-04 16:06 49.93820 7.25847 1636 ft 10 kts 82°
2026-05-04 16:07 49.93905 7.25966 1633 ft 16 kts 33°
2026-05-04 16:07 49.94260 7.26329 1631 ft 25 kts 33°
2026-05-04 16:08 49.94399 7.26472 1627 ft 19 kts 33°
2026-05-04 16:08 49.94670 7.26670 1624 ft 14 kts 32°
2026-05-04 16:09 49.94702 7.26799 1623 ft 8 kts 122°
2026-05-04 16:09 49.94688 7.26844 1622 ft 1 kts 73°
2026-05-04 16:10 49.94710 7.26868 1621 ft 1 kts 33°
2026-05-04 16:11 49.94761 7.26795 1620 ft 11 kts 340°
2026-05-04 16:11 49.94836 7.26836 1621 ft 12 kts 33°
2026-05-04 16:12 49.94788 7.26944 1618 ft 4 kts 207°
2026-05-04 16:12 49.94775 7.26933 1619 ft 0 kts 209°